Weather History for Lewistown, MT

Change the Weather History Date:

Friday, June 7, 2013

  Actual Average Record
Temperature  
Mean Temperature 61 °F 56 °F  
Max Temperature 76 °F 68 °F 92 °F (1988)
Min Temperature 46 °F 44 °F 29 °F (1938)
Degree Days  
Heating Degree Days 4 9  
Month to date heating degree days 93 71  
Since 1 June heating degree days 93 71  
Since 1 July heating degree days 7942 8045  
Cooling Degree Days 0 0  
Month to date cooling degree days 0 0  
Year to date cooling degree days 3 2  
Since 1 June cooling degree days 0 0  
Growing Degree Days 10 (Base 50)    
Moisture  
Dew Point 47 °F    
Average Humidity 62    
Maximum Humidity 93    
Minimum Humidity 31    
Precipitation  
Precipitation T in 0.12 in 1.15 in (1967)
Month to date precipitation 2.84 0.84  
Year to date precipitation 12.47 7.10  
Snow  
Snow 0.00 in - - ()
Snow Depth 0.00 in    
Sea Level Pressure  
Sea Level Pressure 29.78 in    
Wind  
Wind Speed 7 mph (WNW)    
Max Wind Speed 22 mph    
Max Gust Speed 32 mph    
Visibility 10 miles    
Events      
T = Trace of Precipitation, MM = Missing Value Source: NWS Daily Summary

Daily Weather History Graph

Daily Weather History Graph

Search for Another Location

Airport:

Trip Planner

Search our weather history database for the weather conditions in past years. The results will help you decide how hot, cold, wet, or windy it might be!

Date:

Astronomy

Jun. 07, 2013 Rise Set
Actual Time 5:23 AM MDT 9:10 PM MDT
Civil Twilight 4:44 AM MDT 9:49 PM MDT
Nautical Twilight 3:50 AM MDT 10:43 PM MDT
Astronomical Twilight 2:34 AM MDT 12:00 AM MDT
Moon 4:53 AM MDT (6/7) 8:23 PM MDT (6/7)
Length of Visible Light 17h 05m
Length of Day
15h 47m
Waning Crescent, 1% of the Moon is Illuminated
Jun 7
Waning Crescent
Jun 8
New
Jun 16
First Quarter
Jun 23
Full
Jun 29
Last Quarter

Hourly Weather History & Observations

Time (MDT) Temp. Dew Point Humidity Pressure Visibility Wind Dir Wind Speed Gust Speed Precip Events Conditions
12:54 AM 52.0 °F 46.0 °F 80% 29.95 in 10.0 mi ESE 8.1 mph - N/A   Clear
1:54 AM 51.1 °F 46.0 °F 83% 29.93 in 10.0 mi ESE 4.6 mph - N/A   Partly Cloudy
2:54 AM 48.9 °F 45.0 °F 86% 29.91 in 10.0 mi SE 6.9 mph - N/A   Clear
3:54 AM 48.0 °F 45.0 °F 89% 29.89 in 10.0 mi ESE 8.1 mph - N/A   Clear
4:54 AM 46.9 °F 44.1 °F 90% 29.88 in 10.0 mi SE 5.8 mph - N/A   Clear
5:54 AM 46.9 °F 44.1 °F 90% 29.88 in 10.0 mi SE 5.8 mph - N/A   Clear
6:54 AM 53.1 °F 46.9 °F 80% 29.86 in 10.0 mi ESE 5.8 mph - N/A   Scattered Clouds
7:54 AM 57.9 °F 50.0 °F 75% 29.84 in 10.0 mi ESE 3.5 mph - N/A   Scattered Clouds
8:54 AM 66.0 °F 51.1 °F 59% 29.83 in 10.0 mi Calm Calm - N/A   Partly Cloudy
9:54 AM 66.9 °F 53.1 °F 61% 29.82 in 10.0 mi North 4.6 mph - N/A   Partly Cloudy
10:54 AM 70.0 °F 52.0 °F 53% 29.81 in 10.0 mi NW 3.5 mph - N/A   Partly Cloudy
11:54 AM 72.0 °F 52.0 °F 49% 29.79 in 10.0 mi NW 5.8 mph - N/A   Partly Cloudy
12:54 PM 73.0 °F 52.0 °F 48% 29.78 in 10.0 mi North 9.2 mph - N/A   Clear
1:54 PM 73.0 °F 48.9 °F 42% 29.75 in 10.0 mi NW 5.8 mph - N/A   Clear
2:54 PM 73.9 °F 44.1 °F 34% 29.73 in 10.0 mi West 8.1 mph - N/A   Mostly Cloudy
3:54 PM 75.0 °F 46.9 °F 37% 29.71 in 10.0 mi Variable 4.6 mph - N/A   Overcast
4:54 PM 75.9 °F 43.0 °F 31% 29.70 in 10.0 mi NW 6.9 mph - N/A   Scattered Clouds
5:54 PM 73.0 °F 46.0 °F 38% 29.69 in 10.0 mi West 6.9 mph - N/A   Overcast
6:54 PM 73.0 °F 50.0 °F 44% 29.65 in 10.0 mi West 6.9 mph - N/A   Clear
7:54 PM 69.1 °F 52.0 °F 54% 29.65 in 10.0 mi WNW 6.9 mph - N/A   Partly Cloudy
8:54 PM 66.9 °F 52.0 °F 59% 29.64 in 10.0 mi West 8.1 mph - N/A   Partly Cloudy
9:54 PM 63.0 °F 41.0 °F 45% 29.67 in 10.0 mi SW 17.3 mph - N/A   Scattered Clouds
10:54 PM 61.0 °F 44.1 °F 54% 29.71 in 10.0 mi NW 11.5 mph - N/A   Scattered Clouds
11:54 PM 61.0 °F 44.1 °F 54% 29.71 in 10.0 mi West 12.7 mph 25.3 mph 0.00 in   Overcast